datetime,id,power,voltage
1563212254,115609,0,0
1563212314,115609,0,222
1563212374,115609,0,224
1563212434,115609,0,224
1563212494,115609,0,225
1563212554,115609,0,224
1563212614,115609,0,224
1563212674,115609,0,224
1563212734,115609,0,223
1563212794,115609,0,224
1563212854,115609,0,224
1563212914,115609,0,224
1563212974,115609,0,224
1563213034,115609,0,224
1563213094,115609,0,224
1563213154,115609,0,224
1563213214,115609,0,225
1563213274,115609,0,226
1563213334,115609,0,225
1563213338,139562,0,0
1563213394,115609,0,224
1563213398,139562,0,42
1563213454,115609,0,225
1563213458,139562,0,6
1563213514,115609,0,225
1563213518,139562,0,6
1563213574,115609,689,223
1563213578,139562,0,6
1563213634,115609,1099,222
1563213638,139562,0,6
1563213694,115609,1092,222
1563213698,139562,0,6
1563213754,115609,915,222
1563213758,139562,0,6
1563213814,115609,0,225
1563213818,139562,0,6
1563213874,115609,0,225
1563213878,139562,0,6
1563213934,115609,0,225
1563213938,139562,0,6
1563213994,115609,0,226
1563213998,139562,0,6
1563214054,115609,0,226
1563214058,139562,0,6
1563214114,115609,0,226
1563214118,139562,0,6
1563214174,115609,0,226
1563214178,139562,0,6
1563214234,115609,0,226
1563214238,139562,0,6
1563214294,115609,0,226
1563214298,139562,0,6
1563214354,115609,0,225
1563214358,139562,0,6
1563214414,115609,0,225
1563214418,139562,0,6
1563214474,115609,0,224
1563214478,139562,0,6
1563214534,115609,0,225
1563214538,139562,0,6
1563214594,115609,0,225
1563214598,139562,0,6
1563214654,115609,0,226
1563214658,139562,0,6
1563214714,115609,0,225
1563214718,139562,0,6
1563214774,115609,0,224
1563214778,139562,0,6
1563214834,115609,0,224
1563214838,139562,0,6
1563214894,115609,0,224
1563214898,139562,0,6
1563214954,115609,0,223
1563214958,139562,0,6
1563215014,115609,0,224
1563215018,139562,0,6
1563215074,115609,0,224
1563215078,139562,0,6
1563215134,115609,0,225
1563215138,139562,0,6
1563215194,115609,0,225
1563215198,139562,0,6
1563215254,115609,0,224
1563215258,139562,0,6
1563215314,115609,0,223
1563215318,139562,0,6
1563215374,115609,0,223
1563215378,139562,0,6
1563215434,115609,0,223
1563215438,139562,0,6
1563215494,115609,0,224
1563215498,139562,0,6
1563215554,115609,0,223
1563215558,139562,0,6
1563215614,115609,0,224
1563215618,139562,0,6
1563215674,115609,0,224
1563215678,139562,0,6
1563215734,115609,0,224
1563215738,139562,0,6
1563215794,115609,0,224
1563215798,139562,0,6
1563215855,115609,0,224
1563215858,139562,0,6
1563215915,115609,0,224
1563215918,139562,0,6
1563215975,115609,0,224
1563215978,139562,0,6
1563216035,115609,0,224
1563216038,139562,0,6
1563216095,115609,0,225
1563216098,139562,0,6
1563216155,115609,0,227
1563216158,139562,0,6
1563216215,115609,0,227
1563216218,139562,0,6
1563216275,115609,0,227
1563216278,139562,0,6
1563216335,115609,0,227
1563216338,139562,0,6
1563216395,115609,0,227
1563216398,139562,0,6
1563216455,115609,0,227
1563216458,139562,0,6
1563216515,115609,0,227
1563216518,139562,0,6
1563216575,115609,0,227
1563216578,139562,0,6
1563216635,115609,0,227
1563216638,139562,0,6
1563216695,115609,0,227
1563216698,139562,0,6
1563216755,115609,0,226
1563216758,139562,0,6
1563216815,115609,0,227
1563216818,139562,0,6
1563216875,115609,0,227
1563216878,139562,0,6
1563216935,115609,0,226
1563216939,139562,0,6
1563216995,115609,0,227
1563216999,139562,0,6
1563217055,115609,0,225
1563217059,139562,0,6
1563217115,115609,0,224
1563217119,139562,0,6
1563217175,115609,0,225
1563217179,139562,0,6
1563217235,115609,0,225
1563217239,139562,0,6
1563217295,115609,0,226
1563217299,139562,0,6
1563217355,115609,0,226
1563217359,139562,0,6
1563217415,115609,0,226
1563217419,139562,0,6
1563217475,115609,0,226
1563217479,139562,0,6
1563217535,115609,0,226
1563217539,139562,0,6
1563217595,115609,0,226
1563217599,139562,0,6
1563217662,115609,0,0
1563217659,139562,0,6
1563217722,115609,0,224
1563217719,139562,0,6
1563217782,115609,0,227
1563217779,139562,0,6
1563217842,115609,0,227
1563217839,139562,0,6
1563217902,115609,0,227
1563217899,139562,0,6
1563217962,115609,0,227
1563217959,139562,0,6
1563218022,115609,0,226
1563218019,139562,0,6
1563218082,115609,0,226
1563218079,139562,0,6
1563218142,115609,0,225
1563218139,139562,0,6
1563218202,115609,0,226
1563218199,139562,0,6
1563218262,115609,0,226
1563218259,139562,0,6
1563218322,115609,0,226
1563218319,139562,0,6
1563218382,115609,0,225
1563218379,139562,0,6
1563218442,115609,0,225
1563218439,139562,0,6
1563218502,115609,0,225
1563218499,139562,0,6
1563218562,115609,0,226
1563218559,139562,0,6
1563218622,115609,0,226
1563218619,139562,0,6
1563218682,115609,0,226
1563218679,139562,0,6
1563218742,115609,0,225
1563218739,139562,0,6
1563218802,115609,14,224
1563218799,139562,0,6
1563218862,115609,1087,221
1563218859,139562,0,6
1563218922,115609,1087,221
1563218919,139562,0,6
1563218982,115609,1100,223
1563218979,139562,0,6
1563219043,115609,1104,223
1563219039,139562,0,6
1563219103,115609,1101,223
1563219163,115609,1110,224
1563219223,115609,1115,224
1563219283,115609,1114,224
1563219343,115609,1117,224
1563219403,115609,1119,224
1563219463,115609,1121,224
1563219523,115609,1115,224
1563219583,115609,1117,224
1563219643,115609,1120,224
1563219703,115609,1125,225
1563219763,115609,1117,224
1563219823,115609,1113,224
1563219883,115609,1119,224
1563219943,115609,1120,224
1563220003,115609,1124,225
1563220063,115609,1126,225
1563220123,115609,1131,225
1563220183,115609,1137,226
1563220243,115609,1136,226
1563220303,115609,1133,226
1563220363,115609,1127,225
1563220423,115609,1133,226
1563220483,115609,70,228
1563220543,115609,0,227
1563220603,115609,0,227
1563220663,115609,0,227
1563220723,115609,0,227
1563220783,115609,0,226
1563220843,115609,0,226
1563220903,115609,0,226
1563220963,115609,0,226
1563221023,115609,0,227
1563221083,115609,0,227
1563221143,115609,0,227
1563221203,115609,0,227
1563221264,115609,0,227
1563221324,115609,0,228
1563221384,115609,0,228
1563221444,115609,0,228
1563221504,115609,0,227
1563221564,115609,0,228
1563221624,115609,0,227
1563221684,115609,0,227
1563221744,115609,0,227
1563221804,115609,0,227
1563221864,115609,0,226
1563221924,115609,0,226
1563221984,115609,0,226
1563222044,115609,0,225
1563222104,115609,0,225
1563222164,115609,0,226
1563222224,115609,0,226
1563222284,115609,0,226
1563222344,115609,0,225
1563222404,115609,0,224
1563222464,115609,0,224
1563222524,115609,0,223
1563222584,115609,0,224
1563222644,115609,0,224
1563222704,115609,0,224
1563222764,115609,0,224
1563222824,115609,0,223
1563222884,115609,0,222
1563222944,115609,0,224
1563223004,115609,0,224
1563223064,115609,0,226
1563223124,115609,0,225
1563223184,115609,0,224
1563223244,115609,240,224
1563223304,115609,1089,222
1563223364,115609,1088,221
1563223424,115609,1075,220
1563223484,115609,1049,219
1563223544,115609,0,222
1563223604,115609,0,221
1563223664,115609,0,222
1563223724,115609,0,222
1563223784,115609,0,222
1563223844,115609,0,222
1563223904,115609,0,222
1563223964,115609,0,222
1563224024,115609,0,222
1563224084,115609,0,223
1563224144,115609,0,223
1563224204,115609,0,223
1563224264,115609,0,223
1563224324,115609,0,223
1563224384,115609,0,222
1563224444,115609,0,220
1563224504,115609,0,220
1563224564,115609,0,221
1563224624,115609,0,222
1563224684,115609,0,223
1563224744,115609,0,222
1563224804,115609,0,222
1563224865,115609,0,222
1563224925,115609,0,221
1563224985,115609,0,219
1563225045,115609,0,219
1563225105,115609,0,219
1563225165,115609,0,219
1563225225,115609,0,220
1563225285,115609,0,219
1563225345,115609,0,218
1563225405,115609,276,217
1563225465,115609,1038,216
1563225525,115609,1053,218
1563225585,115609,1058,218
1563225645,115609,1054,218
1563225705,115609,1041,217
1563225765,115609,944,214
1563225825,115609,0,216
1563225885,115609,0,217
1563225945,115609,0,217
1563226005,115609,0,219
1563226065,115609,0,221
1563226125,115609,0,220
1563226185,115609,0,220
1563226245,115609,0,220
1563226305,115609,0,219
1563226365,115609,0,219
1563226425,115609,0,219
1563226485,115609,0,219
1563226545,115609,0,220
1563226605,115609,0,221
1563226665,115609,0,221
1563226725,115609,0,221
1563226785,115609,0,220
1563226845,115609,0,219
1563226905,115609,0,219
1563226965,115609,0,219
1563227025,115609,0,219
1563227085,115609,0,218
1563227145,115609,0,218
1563227205,115609,0,219
1563227265,115609,0,220
1563227325,115609,0,221
1563227385,115609,0,222
1563227445,115609,0,222
1563227505,115609,0,221
1563227565,115609,0,220
1563227625,115609,0,221
1563227685,115609,0,221
1563227745,115609,0,221
1563227805,115609,0,222
1563227865,115609,0,221
1563227925,115609,0,221
1563227985,115609,0,221
1563228045,115609,0,221
1563228105,115609,0,221
1563228165,115609,0,221
1563228225,115609,0,220
1563228285,115609,0,219
1563228345,115609,0,219
1563228405,115609,0,218
1563228466,115609,0,218
1563228526,115609,0,218
1563228586,115609,0,219
1563228646,115609,0,217
1563228706,115609,0,218
1563228766,115609,0,217
1563228826,115609,0,216
1563228886,115609,0,214
1563228946,115609,0,214
1563229006,115609,0,216
1563229066,115609,0,217
1563229126,115609,0,217
1563229186,115609,0,217
1563229246,115609,0,217
1563229306,115609,0,217
1563229366,115609,0,217
1563229426,115609,0,217
1563229486,115609,0,217
1563229546,115609,0,218
1563229606,115609,793,217
1563229666,115609,1036,216
1563229726,115609,1038,216
1563229786,115609,1037,216
1563229846,115609,427,217
1563229906,115609,0,217
1563229966,115609,0,218
1563230026,115609,0,215
1563230086,115609,0,216
1563230146,115609,0,216
1563230206,115609,0,218
1563230266,115609,0,219
1563230326,115609,0,219
1563230386,115609,0,219
1563230446,115609,0,221
1563230506,115609,0,220
1563230566,115609,0,219
1563230626,115609,0,219
1563230686,115609,0,219
1563230746,115609,0,219
1563230806,115609,0,219
1563230869,115609,0,0
1563230929,115609,0,214
1563230989,115609,0,217
1563231049,115609,0,218
1563231109,115609,0,219
1563231169,115609,0,219
1563231229,115609,0,219
1563231289,115609,0,218
1563231349,115609,0,219
1563231409,115609,0,218
1563231479,115609,0,0
1563231539,115609,0,215
1563231599,115609,0,217
1563231659,115609,0,219
1563231719,115609,0,220
1563231779,115609,0,221
1563231840,115609,0,221
1563231900,115609,0,221
1563231960,115609,0,221
1563232020,115609,0,221
1563232080,115609,0,222
1563232140,115609,0,222
1563232200,115609,0,222
1563232260,115609,0,221
1563232320,115609,0,219
1563232380,115609,0,219
1563232440,115609,0,219
1563232500,115609,0,220
1563232560,115609,0,220
1563232620,115609,0,220
1563232680,115609,0,219
1563232740,115609,0,219
1563232800,115609,0,219
1563232860,115609,0,219
1563232920,115609,0,220
1563232980,115609,0,220
1563233040,115609,0,220
1563233100,115609,0,220
1563233160,115609,0,219
1563233220,115609,0,218
1563233280,115609,0,218
1563233340,115609,0,215
1563233400,115609,0,214
1563233460,115609,0,214
1563233520,115609,1012,214
1563233580,115609,1030,215
1563233640,115609,1026,215
1563233700,115609,1012,214
1563233760,115609,728,215
1563233820,115609,0,216
1563233890,115609,0,0
1563233950,115609,0,214
1563234010,115609,0,219
1563234070,115609,0,219
1563234130,115609,0,220
1563234190,115609,0,219
1563234250,115609,0,219
1563234310,115609,0,218
1563234370,115609,0,218
1563234430,115609,0,217
1563234490,115609,0,217
1563234550,115609,0,218
1563234610,115609,0,217
1563234670,115609,0,217
1563234730,115609,0,217
1563234790,115609,0,218
1563234850,115609,0,218
1563234910,115609,0,217
1563234970,115609,0,217
1563235030,115609,0,218
1563235090,115609,0,218
1563235150,115609,0,217
1563235210,115609,0,218
1563235270,115609,0,219
1563235330,115609,0,219
1563235390,115609,0,220
1563235450,115609,0,219
1563235510,115609,0,219
1563235570,115609,0,220
1563235630,115609,0,220
1563235690,115609,0,219
1563235750,115609,0,221
1563235810,115609,0,219
1563235870,115609,0,219
1563235930,115609,0,219
1563235990,115609,0,219
1563236050,115609,0,219
1563236110,115609,0,218
1563236170,115609,0,218
1563236230,115609,0,217
1563236290,115609,0,217
1563236350,115609,0,217
1563236410,115609,0,216
1563236470,115609,0,215
1563236530,115609,0,215
1563236590,115609,0,215
1563236650,115609,0,216
1563236710,115609,0,217
1563236770,115609,0,216
1563236830,115609,0,216
1563236890,115609,0,216
1563236950,115609,0,215
1563237010,115609,0,215
1563237070,115609,0,216
1563237130,115609,0,216
1563237190,115609,0,216
1563237250,115609,0,215
1563237310,115609,0,217
1563237370,115609,0,217
1563237430,115609,0,217
1563237491,115609,0,217
1563237551,115609,0,219
1563237611,115609,0,217
1563237671,115609,0,217
1563237731,115609,0,218
1563237791,115609,0,219
1563237851,115609,0,219
1563237911,115609,0,219
1563237971,115609,0,222
1563238031,115609,0,221
1563238091,115609,0,220
1563238151,115609,0,220
1563238211,115609,0,220
1563238271,115609,0,220
1563238331,115609,0,219
1563238391,115609,0,217
1563238451,115609,0,218
1563238511,115609,0,218
1563238571,115609,0,220
1563238631,115609,550,221
1563238691,115609,1070,219
1563238751,115609,1068,219
1563238811,115609,1060,219
1563238871,115609,1052,218
1563238931,115609,1043,217
1563238991,115609,465,219
1563239051,115609,0,219
1563239111,115609,0,220
1563239171,115609,0,220
1563239231,115609,0,220
1563239291,115609,0,220
1563239351,115609,0,220
1563239411,115609,0,218
1563239471,115609,0,218
1563239531,115609,0,217
1563239591,115609,0,217
1563239651,115609,0,218
1563239711,115609,0,219
1563239771,115609,0,220
1563239831,115609,0,219
1563239891,115609,0,219
1563239951,115609,0,218
1563240011,115609,0,220
1563240071,115609,0,220
1563240131,115609,0,220
1563240191,115609,0,219
1563240251,115609,0,218
1563240311,115609,0,219
1563240371,115609,0,218
1563240431,115609,0,217
1563240491,115609,0,215
1563240551,115609,0,215
1563240611,115609,0,215
1563240671,115609,0,217
1563240731,115609,0,219
1563240791,115609,0,219
1563240851,115609,0,218
1563240911,115609,0,218
1563240971,115609,0,218
1563241031,115609,0,219
1563241092,115609,0,219
1563241152,115609,0,220
1563241212,115609,0,221
1563241272,115609,0,222
1563241332,115609,0,223
1563241392,115609,0,222
1563241452,115609,0,222
1563241512,115609,0,219
1563241572,115609,0,217
1563241632,115609,0,217
1563241692,115609,0,216
1563241752,115609,0,216
1563241812,115609,0,216
1563241872,115609,0,217
1563241932,115609,0,217
1563241992,115609,0,218
1563242052,115609,476,219
1563242112,115609,1050,217
1563242172,115609,1044,217
1563242232,115609,1050,217
1563242292,115609,1043,217
1563242352,115609,1032,216
1563242412,115609,1042,217
1563242472,115609,1044,217
1563242532,115609,1045,217
1563242592,115609,714,218
1563242652,115609,0,220
1563242712,115609,0,219
1563242772,115609,0,219
1563242832,115609,0,222
1563242892,115609,0,222
1563242952,115609,0,223
1563243012,115609,0,223
1563243072,115609,0,222
1563243132,115609,0,222
1563243192,115609,0,222
1563243252,115609,0,222
1563243312,115609,0,221
1563243372,115609,0,221
1563243432,115609,0,221
1563243492,115609,0,222
1563243552,115609,0,223
1563243612,115609,0,222
1563243672,115609,0,222
1563243732,115609,0,222
1563243792,115609,0,221
1563243852,115609,0,220
1563243912,115609,0,220
1563243972,115609,0,219
1563244032,115609,0,219
1563244092,115609,0,218
1563244152,115609,0,217
1563244212,115609,0,218
1563244272,115609,0,219
1563244332,115609,0,219
1563244392,115609,0,220
1563244452,115609,0,221
1563244512,115609,0,220
1563244572,115609,0,221
1563244632,115609,0,221
1563244693,115609,0,222
1563244753,115609,0,223
1563244813,115609,0,223
1563244873,115609,0,222
1563244933,115609,0,222
1563244993,115609,0,222
1563245053,115609,0,224
1563245113,115609,0,224
1563245173,115609,0,224
1563245233,115609,0,222
1563245293,115609,294,221
1563245353,115609,1069,219
1563245413,115609,1078,220
1563245473,115609,1081,221
1563245533,115609,531,224
1563245593,115609,0,224
1563245653,115609,0,224
1563245713,115609,0,224
1563245773,115609,0,224
1563245833,115609,0,225
1563245893,115609,727,224
1563245953,115609,1100,223
1563246013,115609,1099,222
1563246073,115609,1089,222
1563246133,115609,1089,222
1563246193,115609,312,221
1563246253,115609,44,222
1563246313,115609,1070,219
1563246373,115609,1069,219
1563246433,115609,1079,220
1563246504,115609,0,0
1563246564,115609,1068,218
1563246624,115609,1078,220
1563246684,115609,1061,219
1563246744,115609,1065,219
1563246804,115609,1071,219
1563246864,115609,1077,220
1563246924,115609,1077,220
1563246984,115609,1075,220
1563247044,115609,1084,221
1563247104,115609,1074,220
1563247164,115609,1077,220
1563247224,115609,1079,220
1563247284,115609,1077,220
1563247344,115609,1075,220
1563247404,115609,1086,221
1563247464,115609,1076,220
1563247524,115609,1069,219
1563247584,115609,1071,219
1563247644,115609,1074,220
1563247704,115609,1081,220
1563247764,115609,1089,221
1563247824,115609,1095,222
1563247884,115609,1103,223
1563247944,115609,1094,222
1563248004,115609,1098,222
1563248064,115609,1090,222
1563248124,115609,1095,222
1563248184,115609,1098,222
1563248244,115609,1101,222
1563248304,115609,1099,222
1563248364,115609,1101,222
1563248424,115609,1094,222
1563248484,115609,1093,222
1563248544,115609,1097,222
1563248604,115609,1098,222
1563248664,115609,1098,222
1563248724,115609,1097,222
1563248784,115609,1092,222
1563248844,115609,1093,222
1563248904,115609,1095,222
1563248964,115609,1100,222
1563249024,115609,1098,222
1563249084,115609,1107,223
1563249144,115609,1106,223
1563249204,115609,1110,223
1563249264,115609,1102,222
1563249324,115609,1105,223
1563249384,115609,1105,223
1563249444,115609,1117,224
1563249504,115609,1116,224
1563249564,115609,1125,225
1563249624,115609,1129,225
1563249684,115609,1123,224
1563249744,115609,1116,224
1563249804,115609,1112,224
1563249864,115609,1110,223
1563249924,115609,1118,224
1563249984,115609,1117,224
1563250044,115609,1118,224
1563250105,115609,1110,223
1563250165,115609,1106,223
1563250225,115609,1095,222
1563250285,115609,1080,220
1563250345,115609,1093,222
1563250405,115609,1090,222
1563250465,115609,1081,220
1563250525,115609,1077,220
1563250585,115609,1071,219
1563250645,115609,1084,221
1563250705,115609,1100,222
1563250765,115609,1108,223
1563250825,115609,1110,223
1563250885,115609,1102,222
1563250945,115609,1097,222
1563251005,115609,651,223
1563251065,115609,0,225
1563251125,115609,0,227
1563251185,115609,0,227
1563251245,115609,0,227
1563251305,115609,0,226
1563251365,115609,0,226
1563251426,115609,0,226
1563251486,115609,0,227
1563251546,115609,0,226
1563251606,115609,0,226
1563251666,115609,0,225
1563251726,115609,0,225
1563251786,115609,0,225
1563251846,115609,142,225
1563251906,115609,1100,222
1563251966,115609,1090,222
1563252026,115609,1081,221
1563252086,115609,1089,222
1563252146,115609,929,222
1563252206,115609,0,224
1563252266,115609,0,224
1563252326,115609,0,225
1563252386,115609,0,225
1563252446,115609,0,226
1563252506,115609,0,226
1563252566,115609,0,227
1563252626,115609,0,226
1563252686,115609,0,225
1563252746,115609,0,225
1563252806,115609,0,224
1563252866,115609,0,225
1563252926,115609,0,225
1563252986,115609,0,225
1563253046,115609,0,225
1563253106,115609,0,226
1563253166,115609,0,226
1563253226,115609,0,225
1563253286,115609,0,226
1563253346,115609,0,225
1563253406,115609,0,225
1563253466,115609,0,225
1563253526,115609,0,226
1563253586,115609,0,227
1563253646,115609,0,227
1563253707,115609,0,226
1563253767,115609,0,224
1563253827,115609,0,224
1563253887,115609,0,224
1563253947,115609,0,225
1563254007,115609,0,226
1563254067,115609,0,226
1563254127,115609,0,225
1563254187,115609,0,226
1563254247,115609,0,226
1563254307,115609,0,227
1563254367,115609,0,226
1563254427,115609,0,226
1563254487,115609,0,226
1563254547,115609,0,224
1563254607,115609,0,225
1563254667,115609,0,225
1563254727,115609,0,227
1563254787,115609,0,229
1563254847,115609,0,227
1563254907,115609,0,227
1563254967,115609,0,226
1563255027,115609,0,226
1563255087,115609,0,225
1563255147,115609,0,226
1563255207,115609,0,226
1563255267,115609,0,227
1563255327,115609,0,228
1563255387,115609,0,228
1563255447,115609,0,228
1563255507,115609,850,224
1563255567,115609,1108,224
1563255627,115609,1109,224
1563255687,115609,726,225
1563255747,115609,0,227
1563255807,115609,0,227
1563255867,115609,0,226
1563255927,115609,0,226
1563255987,115609,0,227
1563256047,115609,0,227
1563256107,115609,0,228
1563256167,115609,0,227
1563256227,115609,0,227
1563256287,115609,0,226
1563256347,115609,0,226
1563256407,115609,0,227
1563256467,115609,0,229
1563256527,115609,0,229
1563256587,115609,0,228
1563256647,115609,0,227
1563256718,115609,0,0
1563256778,115609,0,224
1563256838,115609,0,227
1563256898,115609,0,227
1563256958,115609,0,227
1563257018,115609,0,227
1563257078,115609,0,228
1563257138,115609,0,227
1563257198,115609,0,227
1563257258,115609,0,228
1563257318,115609,0,228
1563257378,115609,0,227
1563257438,115609,0,228
1563257498,115609,0,228
1563257558,115609,0,228
1563257618,115609,0,229
1563257678,115609,0,229
1563257738,115609,0,228
1563257798,115609,0,228
1563257858,115609,0,227
1563257918,115609,0,228
1563257978,115609,0,229
1563258038,115609,0,228
1563258098,115609,0,227
1563258158,115609,0,227
1563258218,115609,0,226
1563258278,115609,0,227
1563258338,115609,0,226
1563258398,115609,0,225
1563258458,115609,0,225
1563258524,115609,0,0
1563258584,115609,0,223
1563258644,115609,0,226
1563258704,115609,0,225
1563258764,115609,0,225
1563258824,115609,0,225
1563258884,115609,0,226
1563258944,115609,0,227
1563259004,115609,0,227
1563259064,115609,0,227
1563259124,115609,0,228
1563259184,115609,0,228
1563259244,115609,0,228
1563259304,115609,0,227
1563259364,115609,0,228
1563259424,115609,0,227
1563259484,115609,0,224
1563259544,115609,0,223
1563259604,115609,0,224
1563259664,115609,0,226
1563259724,115609,0,227
1563259784,115609,0,227
1563259844,115609,0,227
1563259904,115609,0,226
1563259964,115609,0,227
1563260024,115609,0,227
1563260084,115609,0,229
1563260144,115609,0,228
1563260204,115609,0,227
1563260264,115609,0,225
1563260324,115609,0,224
1563260384,115609,0,224
1563260444,115609,0,225
1563260504,115609,0,226
1563260564,115609,81,227
1563260624,115609,1131,226
1563260684,115609,1138,227
1563260744,115609,1133,226
1563260804,115609,595,226
1563260864,115609,0,227
1563260924,115609,0,226
1563260984,115609,0,226
1563261044,115609,0,226
1563261104,115609,0,226
1563261164,115609,0,226
1563261224,115609,0,227
1563261284,115609,0,229
1563261344,115609,0,228
1563261404,115609,0,228
1563261464,115609,0,227
1563261524,115609,0,226
1563261584,115609,0,225
1563261644,115609,0,224
1563261704,115609,0,224
1563261764,115609,0,226
1563261824,115609,0,227
1563261884,115609,0,228
1563261944,115609,0,227
1563262004,115609,0,227
1563262064,115609,0,227
1563262125,115609,0,227
1563262185,115609,0,227
1563262245,115609,0,227
1563262305,115609,0,227
1563262365,115609,0,227
1563262425,115609,0,227
1563262485,115609,0,226
1563262545,115609,0,226
1563262605,115609,0,227
1563262665,115609,0,227
1563262725,115609,0,227
1563262785,115609,0,227
1563262845,115609,0,226
1563262905,115609,0,228
1563262965,115609,0,229
1563263025,115609,0,228
1563263085,115609,0,226
1563263145,115609,0,225
1563263205,115609,0,225
1563263265,115609,0,225
1563263325,115609,0,224
1563263385,115609,0,225
1563263445,115609,0,227
1563263505,115609,0,228
1563263565,115609,0,228
1563263625,115609,0,227
1563263685,115609,0,227
1563263745,115609,0,226
1563263805,115609,0,225
1563263865,115609,0,226
1563263925,115609,0,225
1563263985,115609,0,226
1563264045,115609,0,227
1563264105,115609,0,226
1563264165,115609,0,226
1563264225,115609,0,225
1563264285,115609,0,225
1563264345,115609,0,225
1563264405,115609,0,226
1563264465,115609,0,225
1563264525,115609,0,225
1563264585,115609,0,226
1563264645,115609,0,227
1563264705,115609,0,229
1563264765,115609,0,228
1563264825,115609,0,229
1563264885,115609,0,227
1563264945,115609,0,227
1563265005,115609,0,226
1563265065,115609,0,226
1563265125,115609,0,227
1563265185,115609,0,227
1563265245,115609,0,227
1563265305,115609,0,226
1563265365,115609,0,226
1563265425,115609,0,226
1563265485,115609,0,228
1563265545,115609,0,228
1563265605,115609,0,227
1563265665,115609,0,227